Weather History for Lake Charles, LA

Change the Weather History Date:

Monday, July 15, 2013

  Actual Average Record
Temperature  
Mean Temperature 80 °F -  
Max Temperature 88 °F 90 °F 98 °F (2004)
Min Temperature 75 °F 76 °F 73 °F (2006)
Cooling Degree Days 16    
Growing Degree Days 30 (Base 50)    
Moisture  
Dew Point 73 °F    
Average Humidity 81    
Maximum Humidity 94    
Minimum Humidity 58    
Precipitation  
Precipitation 0.00 in - - ()
Sea Level Pressure  
Sea Level Pressure 30.01 in    
Wind  
Wind Speed 7 mph (East)    
Max Wind Speed 15 mph    
Max Gust Speed 23 mph    
Visibility 9 miles    
Events Thunderstorm    
Averages and records for this station are not official NWS values.
T = Trace of Precipitation, MM = Missing Value Source: NWS Daily Summary

Daily Weather History Graph

Daily Weather History Graph

Search for Another Location

Airport:

Trip Planner

Search our weather history database for the weather conditions in past years. The results will help you decide how hot, cold, wet, or windy it might be!

Date:

Astronomy

Jul. 15, 2013 Rise Set
Actual Time 6:21 AM CDT 8:15 PM CDT
Civil Twilight 5:54 AM CDT 8:42 PM CDT
Nautical Twilight 5:21 AM CDT 9:14 PM CDT
Astronomical Twilight 4:47 AM CDT 9:49 PM CDT
Moon 1:06 PM CDT (7/15) 12:01 AM CDT (7/15)
Length of Visible Light 14h 47m
Length of Day
13h 54m
Waxing Crescent, 45% of the Moon is Illuminated
Jul 15
Waxing Crescent
Jul 15
First Quarter
Jul 22
Full
Jul 29
Last Quarter
Aug 6
New

Hourly Weather History & Observations

Time (CDT) Temp. Heat Index Dew Point Humidity Pressure Visibility Wind Dir Wind Speed Gust Speed Precip Events Conditions
12:15 AM 78.8 °F - 72.1 °F 80% 29.96 in 10.0 mi SE 9.2 mph - N/A   Clear
12:35 AM 78.6 °F - 72.5 °F 81% 29.96 in 10.0 mi ESE 6.9 mph - N/A   Clear
12:55 AM 78.1 °F - 73.4 °F 85% 29.95 in 10.0 mi East 6.9 mph - N/A   Clear
1:15 AM 77.9 °F - 74.3 °F 89% 29.95 in 10.0 mi East 8.1 mph - N/A   Clear
1:35 AM 77.9 °F - 74.5 °F 89% 29.95 in 10.0 mi ESE 6.9 mph - N/A   Clear
1:55 AM 77.5 °F - 74.7 °F 91% 29.95 in 10.0 mi ESE 6.9 mph - N/A   Clear
2:15 AM 77.7 °F - 74.7 °F 90% 29.95 in 10.0 mi East 4.6 mph - N/A   Clear
2:35 AM 77.5 °F - 74.5 °F 90% 29.95 in 10.0 mi East 4.6 mph - N/A   Clear
2:55 AM 77.4 °F - 74.3 °F 90% 29.95 in 10.0 mi East 8.1 mph - N/A   Clear
3:15 AM 77.2 °F - 74.3 °F 91% 29.96 in 10.0 mi ENE 4.6 mph - N/A   Clear
3:35 AM 77.4 °F - 74.3 °F 90% 29.96 in 10.0 mi East 4.6 mph - N/A   Scattered Clouds
3:55 AM 77.2 °F - 73.8 °F 89% 29.96 in 10.0 mi East 5.8 mph - N/A   Scattered Clouds
4:15 AM 77.0 °F - 73.6 °F 89% 29.96 in 10.0 mi East 6.9 mph - N/A   Clear
4:35 AM 76.6 °F - 73.8 °F 91% 29.97 in 10.0 mi East 4.6 mph - N/A   Clear
4:55 AM 76.3 °F - 73.6 °F 91% 29.97 in 10.0 mi East 4.6 mph - N/A   Clear
5:15 AM 76.3 °F - 73.6 °F 91% 29.97 in 10.0 mi ENE 5.8 mph - N/A   Clear
5:35 AM 76.5 °F - 73.6 °F 91% 29.98 in 10.0 mi East 5.8 mph - N/A   Scattered Clouds
5:55 AM 76.3 °F - 73.4 °F 91% 29.98 in 10.0 mi ENE 4.6 mph - N/A   Scattered Clouds
6:00 AM 75.2 °F - 73.4 °F 94% 29.98 in 10.0 mi Calm Calm - N/A   Scattered Clouds
6:15 AM 75.7 °F - 73.0 °F 91% 29.99 in 5.0 mi ENE 5.8 mph - N/A   Clear
6:35 AM 75.4 °F - 72.9 °F 92% 30.00 in 3.0 mi East 5.8 mph - N/A   Clear
6:55 AM 75.2 °F - 73.4 °F 94% 30.00 in 10.0 mi East 8.1 mph - N/A   Scattered Clouds
7:55 AM 78.8 °F - 71.6 °F 78% 30.02 in 10.0 mi East 8.1 mph - N/A   Scattered Clouds
8:50 AM 80.6 °F 84.6 °F 71.6 °F 74% 30.05 in 7.0 mi East 11.5 mph 16.1 mph N/A Thunderstorm Thunderstorm
9:55 AM 82.4 °F 87.2 °F 71.6 °F 70% 30.05 in 7.0 mi East 4.6 mph - N/A Thunderstorm Thunderstorm
10:50 AM 82.4 °F 86.3 °F 69.8 °F 66% 30.06 in 7.0 mi East 11.5 mph 17.3 mph N/A Thunderstorm Thunderstorm
11:50 AM 86.0 °F 91.8 °F 71.6 °F 62% 30.06 in 7.0 mi ESE 15.0 mph 19.6 mph N/A Thunderstorm Thunderstorm
12:50 PM 84.2 °F 89.6 °F 71.6 °F 66% 30.05 in 10.0 mi ESE 10.4 mph 17.3 mph N/A   Mostly Cloudy
1:50 PM 84.2 °F 88.4 °F 69.8 °F 62% 30.05 in 10.0 mi ESE 10.4 mph 19.6 mph N/A   Mostly Cloudy
2:50 PM 86.0 °F 90.4 °F 69.8 °F 58% 30.05 in 10.0 mi East 10.4 mph - N/A   Mostly Cloudy
3:50 PM 86.0 °F 91.8 °F 71.6 °F 62% 30.03 in 10.0 mi East 12.7 mph 18.4 mph N/A   Mostly Cloudy
4:50 PM 86.0 °F 90.4 °F 69.8 °F 58% 30.02 in 10.0 mi East 13.8 mph 23.0 mph N/A   Mostly Cloudy
5:50 PM 84.2 °F 88.4 °F 69.8 °F 62% 30.02 in 10.0 mi East 11.5 mph - N/A   Mostly Cloudy
6:50 PM 84.2 °F 89.6 °F 71.6 °F 66% 30.03 in 10.0 mi ESE 6.9 mph - N/A   Mostly Cloudy
7:50 PM 82.4 °F 86.3 °F 69.8 °F 66% 30.05 in 10.0 mi East 6.9 mph - N/A   Mostly Cloudy
8:50 PM 78.8 °F - 71.6 °F 78% 30.07 in 10.0 mi East 5.8 mph - N/A   Clear
9:50 PM 78.8 °F - 71.6 °F 78% 30.08 in 10.0 mi Calm Calm - N/A   Clear
11:15 PM 76.6 °F - 73.2 °F 89% 30.10 in 10.0 mi NE 5.8 mph - N/A   Clear
11:35 PM 76.6 °F - 73.2 °F 89% 30.10 in 10.0 mi ENE 5.8 mph - N/A   Clear
11:55 PM 76.5 °F - 73.0 °F 89% 30.10 in 10.0 mi NE 5.8 mph - N/A   Clear